DECAYED

STARLINK-5898, 55929 (Decayed)

Orbit data source: Space-Track

STARLINK-5898, 55929 was a payload satellite owned by SpaceX/Seattle (US) in LEO that was launched on Fri, 17 Mar 2023 UTC via an FALCON 9 launch vehicle from the Air Force Western Test Range (AFWTR). Payload-class satellites include a variety of spacecraft equipped with specific instruments for various scientific and technological missions. These include communications satellites like Starlink; space stations such as the ISS; scientific satellites like the Hubble; Earth observation satellites from companies like Planet Labs, Umbra, and HawkEye 360; GPS; miniature CubeSats for education and research; and military/defense satellites.

Not visible in the next 10 days
Identifier
55929, 2023-037R
Orbit
Decayed
Country
Flag of USUS
Related business
Manufacturer
SpaceX/Seattle
Mission
Decayed Commercial Communications
Bus & Motor
STARLINK, Unknown motor
Mass
305 kg wet, ~290 kg dry
Launch date (UTC)
2023-03-17 (3 years ago)
Launch vehicle
FALCON 9
Launch site
Air Force Western Test Range (AFWTR)
Object type
Payload
Rocket body
Debris
Shape & HBR
Box + 1 Pan, 10.1 m
Radar Cross Section
11.087 m², Large (>1 m²)

Expand to show TLE details & history
Last TLE update: 1 year ago

TLE from 1 year ago
0 STARLINK-5898
1 55929U 23037R   25070.69172544  .15255062  44872-5  27346-3 0  9998
2 55929  69.9688 118.3608 0008209 251.8188 228.4522 16.47213240109978
Epoch: 2025-03-11T16:36Z
TLE epoch observation values (Epoch: 2025-03-11T16:36:05.078Z)
Latitude
54.41537°
Longitude
-150.68922°
Altitude
158.634 km
Speed
7.815 km/s
True Right ascension
17h 51m 41s
True Declination
54° 14' 15"
Sunlit
Object was in daylight at epoch
Visualization orbit readout
Latitude
Unknown
Longitude
Unknown
Altitude
Unknown
Speed
Unknown
Apparent Right ascension
Unknown
Apparent Declination
Unknown
Sunlit
N/A
Visualization observer readout
Local Sidereal Time
02:14:01
Azimuth
Unknown
Elevation
Unknown
Doppler factor
Unknown
Orbital elements
Apogee altitude
149.856 km
Perigee altitude
139.147 km
Semi-major axis
6,522.639 km
Eccentricity
0.00082
Inclination
69.9688°
RAAN
118.3608°
Arg. of periapsis
251.8188°
True anomaly
228.38185°
Mean anomaly
228.4522°
Eccentric anomaly
228.41702°
Mean motion
4.1201 °/min
Orbital period
87.38 mins
BSTAR
0.00027346
Loading maneuver chart data...
Computing Atmospheric mass density...
Loading historical data...
Loading historical data...
Loading historical data...
Loading historical data...
Loading historical data...
Loading historical data...
Loading historical data...

Documentation

Showing up to 5 results
|